Time,TemperatureF,DewpointF,PressureIn,WindDirection,WindDirectionDegrees,WindSpeedMPH,WindSpeedGustMPH,Humidity,HourlyPrecipIn,Conditions,Clouds,dailyrainin,SoftwareType,DateUTC
2013-01-27 00:04:00,30.0,29.0,30.36,WNW,298,5.0,11.0,95,-99.99,,,-99.99,,2013-01-27 05:04:00,
2013-01-27 00:12:00,30.0,29.0,30.36,WNW,298,5.0,11.0,95,-99.99,,,-99.99,,2013-01-27 05:12:00,
2013-01-27 00:22:00,30.0,29.0,30.36,WNW,298,5.0,11.0,95,-99.99,,,-99.99,,2013-01-27 05:22:00,
2013-01-27 00:32:00,30.0,29.0,30.36,WNW,298,5.0,11.0,95,-99.99,,,-99.99,,2013-01-27 05:32:00,
2013-01-27 00:42:00,30.0,29.0,30.36,WNW,298,5.0,11.0,95,-99.99,,,-99.99,,2013-01-27 05:42:00,
2013-01-27 01:02:00,29.0,28.0,30.37,WNW,301,6.0,10.0,96,-99.99,,,-99.99,,2013-01-27 06:02:00,
2013-01-27 01:11:00,29.0,28.0,30.37,WNW,301,6.0,10.0,96,-99.99,,,-99.99,,2013-01-27 06:11:00,
2013-01-27 01:21:00,29.0,28.0,30.37,WNW,301,6.0,10.0,96,-99.99,,,-99.99,,2013-01-27 06:21:00,
2013-01-27 01:32:00,30.0,29.0,30.39,NW,320,6.0,11.0,95,-99.99,,,-99.99,,2013-01-27 06:32:00,
2013-01-27 01:42:00,30.0,29.0,30.39,NW,320,6.0,11.0,95,-99.99,,,-99.99,,2013-01-27 06:42:00,
2013-01-27 01:52:00,30.0,29.0,30.40,NW,313,7.0,11.0,95,-99.99,,,-99.99,,2013-01-27 06:52:00,
2013-01-27 02:01:00,30.0,29.0,30.40,NW,313,7.0,11.0,95,-99.99,,,-99.99,,2013-01-27 07:01:00,
2013-01-27 02:14:00,30.0,29.0,30.40,NW,313,7.0,11.0,95,-99.99,,,-99.99,,2013-01-27 07:14:00,
2013-01-27 02:21:00,29.0,28.0,30.40,West,277,6.0,10.0,95,-99.99,,,-99.99,,2013-01-27 07:21:00,
2013-01-27 02:32:00,29.0,28.0,30.40,West,277,6.0,10.0,95,-99.99,,,-99.99,,2013-01-27 07:32:00,
2013-01-27 02:42:00,29.0,28.0,30.40,West,277,6.0,10.0,95,-99.99,,,-99.99,,2013-01-27 07:42:00,
2013-01-27 02:52:00,29.0,28.0,30.40,West,277,6.0,10.0,95,-99.99,,,-99.99,,2013-01-27 07:52:00,
2013-01-27 03:32:00,28.0,27.0,30.42,WNW,289,5.0,8.0,96,-99.99,,,-99.99,,2013-01-27 08:32:00,
2013-01-27 03:42:00,28.0,27.0,30.42,WNW,289,5.0,8.0,96,-99.99,,,-99.99,,2013-01-27 08:42:00,
2013-01-27 03:52:00,28.0,27.0,30.42,WNW,289,5.0,8.0,96,-99.99,,,-99.99,,2013-01-27 08:52:00,
2013-01-27 04:03:00,29.0,28.0,30.42,WNW,291,4.0,7.0,96,-99.99,,,-99.99,,2013-01-27 09:03:00,
2013-01-27 04:11:00,29.0,28.0,30.42,WNW,291,4.0,7.0,96,-99.99,,,-99.99,,2013-01-27 09:11:00,
2013-01-27 04:22:00,29.0,28.0,30.43,WNW,296,2.0,6.0,96,-99.99,,,-99.99,,2013-01-27 09:22:00,
2013-01-27 04:32:00,28.0,27.0,30.43,WNW,290,4.0,7.0,96,-99.99,,,-99.99,,2013-01-27 09:32:00,
2013-01-27 04:42:00,28.0,27.0,30.43,WNW,290,4.0,7.0,96,-99.99,,,-99.99,,2013-01-27 09:42:00,
2013-01-27 04:51:00,28.0,27.0,30.43,West,265,0.0,6.0,96,-99.99,,,-99.99,,2013-01-27 09:51:00,
2013-01-27 05:01:00,28.0,27.0,30.43,WNW,290,3.0,6.0,97,-99.99,,,-99.99,,2013-01-27 10:01:00,
2013-01-27 05:11:00,28.0,27.0,30.43,WNW,290,3.0,6.0,97,-99.99,,,-99.99,,2013-01-27 10:11:00,
2013-01-27 05:21:00,28.0,27.0,30.43,WNW,290,3.0,6.0,97,-99.99,,,-99.99,,2013-01-27 10:21:00,
2013-01-27 05:32:00,28.0,27.0,30.44,WNW,296,4.0,6.0,97,-99.99,,,-99.99,,2013-01-27 10:32:00,
2013-01-27 05:42:00,28.0,27.0,30.44,WNW,296,4.0,6.0,97,-99.99,,,-99.99,,2013-01-27 10:42:00,
2013-01-27 05:52:00,28.0,27.0,30.44,WNW,296,4.0,6.0,97,-99.99,,,-99.99,,2013-01-27 10:52:00,
2013-01-27 06:01:00,27.0,26.0,30.44,WNW,290,3.0,5.0,97,-99.99,,,-99.99,,2013-01-27 11:01:00,
2013-01-27 06:11:00,27.0,26.0,30.44,WNW,290,3.0,5.0,97,-99.99,,,-99.99,,2013-01-27 11:11:00,
2013-01-27 06:22:00,27.0,26.0,30.44,WNW,290,3.0,5.0,97,-99.99,,,-99.99,,2013-01-27 11:22:00,
2013-01-27 06:32:00,27.0,26.0,30.44,WNW,290,3.0,5.0,97,-99.99,,,-99.99,,2013-01-27 11:32:00,
2013-01-27 06:42:00,27.0,26.0,30.44,WNW,290,3.0,5.0,97,-99.99,,,-99.99,,2013-01-27 11:42:00,
2013-01-27 07:02:00,28.0,27.0,30.46,NW,304,5.0,8.0,97,-99.99,,,-99.99,,2013-01-27 12:02:00,
2013-01-27 07:12:00,28.0,27.0,30.46,NW,304,5.0,8.0,97,-99.99,,,-99.99,,2013-01-27 12:12:00,
2013-01-27 07:22:00,28.0,27.0,30.46,NW,304,5.0,8.0,97,-99.99,,,-99.99,,2013-01-27 12:22:00,
2013-01-27 07:32:00,28.0,27.0,30.46,NW,304,5.0,8.0,97,-99.99,,,-99.99,,2013-01-27 12:32:00,
2013-01-27 07:42:00,28.0,27.0,30.46,NW,304,5.0,8.0,97,-99.99,,,-99.99,,2013-01-27 12:42:00,
2013-01-27 08:02:00,28.0,28.0,30.50,NW,307,2.0,5.0,98,-99.99,,,-99.99,,2013-01-27 13:02:00,
2013-01-27 08:12:00,28.0,28.0,30.50,NW,307,2.0,5.0,98,-99.99,,,-99.99,,2013-01-27 13:12:00,
2013-01-27 08:22:00,28.0,28.0,30.51,NW,304,3.0,5.0,98,-99.99,,,-99.99,,2013-01-27 13:22:00,
2013-01-27 08:32:00,28.0,28.0,30.52,NW,306,4.0,6.0,98,-99.99,,,-99.99,,2013-01-27 13:32:00,
2013-01-27 08:42:00,28.0,28.0,30.52,NW,306,4.0,6.0,98,-99.99,,,-99.99,,2013-01-27 13:42:00,
2013-01-27 08:52:00,28.0,28.0,30.52,NW,306,4.0,6.0,98,-99.99,,,-99.99,,2013-01-27 13:52:00,
2013-01-27 09:02:00,28.0,28.0,30.52,NW,306,4.0,6.0,98,-99.99,,,-99.99,,2013-01-27 14:02:00,
2013-01-27 09:12:00,28.0,28.0,30.52,NW,306,4.0,6.0,98,-99.99,,,-99.99,,2013-01-27 14:12:00,
2013-01-27 09:22:00,30.0,29.0,30.54,NW,313,3.0,5.0,98,-99.99,,,-99.99,,2013-01-27 14:22:00,
2013-01-27 09:33:00,30.0,29.0,30.54,NW,313,3.0,5.0,98,-99.99,,,-99.99,,2013-01-27 14:33:00,
2013-01-27 09:43:00,30.0,29.0,30.54,NW,313,3.0,5.0,98,-99.99,,,-99.99,,2013-01-27 14:43:00,
2013-01-27 09:53:00,31.0,30.0,30.54,NW,317,0.0,4.0,97,-99.99,,,-99.99,,2013-01-27 14:53:00,
2013-01-27 10:02:00,31.0,30.0,30.54,NW,317,0.0,4.0,97,-99.99,,,-99.99,,2013-01-27 15:02:00,
2013-01-27 10:12:00,31.0,30.0,30.54,NW,317,0.0,4.0,97,-99.99,,,-99.99,,2013-01-27 15:12:00,
2013-01-27 10:22:00,32.0,32.0,30.55,NE,42,1.0,6.0,98,-99.99,,,-99.99,,2013-01-27 15:22:00,
2013-01-27 10:32:00,32.0,32.0,30.55,NE,42,1.0,6.0,98,-99.99,,,-99.99,,2013-01-27 15:32:00,
2013-01-27 10:42:00,32.0,32.0,30.55,NE,42,1.0,6.0,98,-99.99,,,-99.99,,2013-01-27 15:42:00,
2013-01-27 10:52:00,32.0,32.0,30.56,NE,51,1.0,5.0,98,-99.99,,,-99.99,,2013-01-27 15:52:00,
2013-01-27 11:03:00,32.0,32.0,30.56,ENE,62,3.0,5.0,98,-99.99,,,-99.99,,2013-01-27 16:03:00,
2013-01-27 11:12:00,32.0,32.0,30.56,ENE,62,3.0,5.0,98,-99.99,,,-99.99,,2013-01-27 16:12:00,
2013-01-27 11:22:00,32.0,32.0,30.56,ENE,62,3.0,5.0,98,-99.99,,,-99.99,,2013-01-27 16:22:00,
2013-01-27 11:32:00,33.0,32.0,30.55,SE,141,4.0,9.0,97,-99.99,,,-99.99,,2013-01-27 16:32:00,
2013-01-27 11:42:00,33.0,32.0,30.55,SE,141,4.0,9.0,97,-99.99,,,-99.99,,2013-01-27 16:42:00,
2013-01-27 11:53:00,33.0,32.0,30.55,SE,141,4.0,9.0,97,-99.99,,,-99.99,,2013-01-27 16:53:00,
2013-01-27 12:02:00,33.0,32.0,30.54,ENE,70,0.0,6.0,97,-99.99,,,-99.99,,2013-01-27 17:02:00,
2013-01-27 12:12:00,33.0,32.0,30.54,ENE,70,0.0,6.0,97,-99.99,,,-99.99,,2013-01-27 17:12:00,
2013-01-27 12:22:00,33.0,32.0,30.54,ENE,70,0.0,6.0,97,-99.99,,,-99.99,,2013-01-27 17:22:00,
2013-01-27 12:32:00,33.0,32.0,30.54,ENE,70,0.0,6.0,97,-99.99,,,-99.99,,2013-01-27 17:32:00,
2013-01-27 12:53:00,34.0,32.0,30.50,ENE,58,5.0,9.0,93,-99.99,,,-99.99,,2013-01-27 17:53:00,
2013-01-27 13:03:00,34.0,32.0,30.50,ENE,58,5.0,9.0,93,-99.99,,,-99.99,,2013-01-27 18:03:00,
2013-01-27 13:12:00,34.0,32.0,30.50,ENE,58,5.0,9.0,93,-99.99,,,-99.99,,2013-01-27 18:12:00,
2013-01-27 13:23:00,34.0,32.0,30.50,ENE,58,5.0,9.0,93,-99.99,,,-99.99,,2013-01-27 18:23:00,
2013-01-27 13:32:00,34.0,32.0,30.50,ENE,58,5.0,9.0,93,-99.99,,,-99.99,,2013-01-27 18:32:00,
2013-01-27 13:53:00,35.0,33.0,30.48,East,97,1.0,4.0,94,-99.99,,,-99.99,,2013-01-27 18:53:00,
2013-01-27 14:02:00,35.0,33.0,30.48,East,97,1.0,4.0,94,-99.99,,,-99.99,,2013-01-27 19:02:00,
2013-01-27 14:12:00,35.0,33.0,30.48,East,97,1.0,4.0,94,-99.99,,,-99.99,,2013-01-27 19:12:00,
2013-01-27 14:22:00,36.0,34.0,30.48,SSE,168,0.0,8.0,92,-99.99,,,-99.99,,2013-01-27 19:22:00,
2013-01-27 14:32:00,36.0,34.0,30.48,SSE,168,0.0,8.0,92,-99.99,,,-99.99,,2013-01-27 19:32:00,
2013-01-27 14:42:00,36.0,34.0,30.48,SSE,168,0.0,8.0,92,-99.99,,,-99.99,,2013-01-27 19:42:00,
2013-01-27 14:52:00,36.0,34.0,30.48,SSE,168,0.0,8.0,92,-99.99,,,-99.99,,2013-01-27 19:52:00,
2013-01-27 15:02:00,36.0,34.0,30.48,SSE,168,0.0,8.0,92,-99.99,,,-99.99,,2013-01-27 20:02:00,
2013-01-27 15:10:00,37.0,35.0,30.47,SSE,166,6.0,6.0,91,-99.99,,,-99.99,,2013-01-27 20:10:00,
2013-01-27 15:22:00,37.0,35.0,30.47,South,187,5.0,9.0,91,-99.99,,,-99.99,,2013-01-27 20:22:00,
2013-01-27 15:33:00,37.0,35.0,30.47,SSE,166,6.0,6.0,91,-99.99,,,-99.99,,2013-01-27 20:33:00,
2013-01-27 15:42:00,37.0,35.0,30.47,SSE,166,6.0,6.0,91,-99.99,,,-99.99,,2013-01-27 20:42:00,
2013-01-27 15:52:00,37.0,35.0,30.47,SSE,166,6.0,6.0,91,-99.99,,,-99.99,,2013-01-27 20:52:00,
2013-01-27 16:02:00,37.0,35.0,30.47,SSE,166,6.0,6.0,91,-99.99,,,-99.99,,2013-01-27 21:02:00,
2013-01-27 16:22:00,37.0,35.0,30.46,ESE,121,2.0,3.0,93,-99.99,,,-99.99,,2013-01-27 21:22:00,
2013-01-27 16:33:00,37.0,35.0,30.46,East,87,0.0,0.0,93,-99.99,,,-99.99,,2013-01-27 21:33:00,
2013-01-27 16:42:00,37.0,35.0,30.46,East,87,0.0,0.0,93,-99.99,,,-99.99,,2013-01-27 21:42:00,
2013-01-27 16:52:00,37.0,35.0,30.46,ESE,108,1.0,0.0,93,-99.99,,,-99.99,,2013-01-27 21:52:00,
2013-01-27 17:03:00,37.0,35.0,30.46,ESE,108,1.0,0.0,93,-99.99,,,-99.99,,2013-01-27 22:03:00,
2013-01-27 17:12:00,37.0,35.0,30.46,ESE,108,1.0,0.0,93,-99.99,,,-99.99,,2013-01-27 22:12:00,
2013-01-27 17:22:00,37.0,35.0,30.47,South,182,0.0,0.0,94,-99.99,,,-99.99,,2013-01-27 22:22:00,
2013-01-27 17:33:00,37.0,35.0,30.47,South,182,0.0,0.0,94,-99.99,,,-99.99,,2013-01-27 22:33:00,
2013-01-27 17:40:00,36.0,34.0,30.47,South,182,0.0,0.0,94,-99.99,,,-99.99,,2013-01-27 22:40:00,
2013-01-27 17:42:00,37.0,35.0,30.47,South,182,0.0,0.0,94,-99.99,,,-99.99,,2013-01-27 22:42:00,
2013-01-27 17:52:00,37.0,35.0,30.47,South,182,0.0,0.0,94,-99.99,,,-99.99,,2013-01-27 22:52:00,
2013-01-27 18:02:00,36.0,34.0,30.47,South,182,0.0,0.0,94,-99.99,,,-99.99,,2013-01-27 23:02:00,
2013-01-27 18:12:00,36.0,34.0,30.47,South,182,0.0,0.0,94,-99.99,,,-99.99,,2013-01-27 23:12:00,
2013-01-27 18:22:00,36.0,34.0,30.47,South,182,0.0,0.0,94,-99.99,,,-99.99,,2013-01-27 23:22:00,
2013-01-27 18:32:00,36.0,34.0,30.47,South,182,0.0,0.0,94,-99.99,,,-99.99,,2013-01-27 23:32:00,
2013-01-27 18:53:00,36.0,35.0,30.47,South,182,0.0,0.0,96,-99.99,,,-99.99,,2013-01-27 23:53:00,
2013-01-27 19:02:00,36.0,35.0,30.47,South,182,0.0,0.0,96,-99.99,,,-99.99,,2013-01-28 00:02:00,
2013-01-27 19:12:00,36.0,35.0,30.47,South,182,0.0,0.0,96,-99.99,,,-99.99,,2013-01-28 00:12:00,
2013-01-27 19:22:00,35.0,34.0,30.45,South,182,0.0,0.0,96,-99.99,,,-99.99,,2013-01-28 00:22:00,
2013-01-27 19:33:00,35.0,34.0,30.45,South,182,0.0,0.0,96,-99.99,,,-99.99,,2013-01-28 00:33:00,
2013-01-27 19:42:00,35.0,34.0,30.45,South,182,0.0,0.0,96,-99.99,,,-99.99,,2013-01-28 00:42:00,
2013-01-27 19:52:00,34.0,34.0,30.46,South,182,0.0,0.0,98,-99.99,,,-99.99,,2013-01-28 00:52:00,
2013-01-27 20:02:00,34.0,34.0,30.46,South,182,0.0,0.0,98,-99.99,,,-99.99,,2013-01-28 01:02:00,
2013-01-27 20:12:00,34.0,34.0,30.46,South,182,0.0,0.0,98,-99.99,,,-99.99,,2013-01-28 01:12:00,
2013-01-27 20:22:00,33.0,32.0,30.46,South,182,0.0,0.0,98,-99.99,,,-99.99,,2013-01-28 01:22:00,
2013-01-27 20:33:00,33.0,33.0,30.46,South,182,0.0,0.0,99,-99.99,,,-99.99,,2013-01-28 01:33:00,
2013-01-27 20:42:00,33.0,33.0,30.46,South,182,0.0,0.0,99,-99.99,,,-99.99,,2013-01-28 01:42:00,
2013-01-27 20:52:00,33.0,32.0,30.46,South,182,0.0,0.0,98,-99.99,,,-99.99,,2013-01-28 01:52:00,
2013-01-27 21:02:00,33.0,32.0,30.46,South,182,0.0,0.0,98,-99.99,,,-99.99,,2013-01-28 02:02:00,
2013-01-27 21:11:00,33.0,32.0,30.46,South,182,0.0,0.0,98,-99.99,,,-99.99,,2013-01-28 02:11:00,
2013-01-27 21:22:00,33.0,32.0,30.46,South,182,0.0,0.0,98,-99.99,,,-99.99,,2013-01-28 02:22:00,
2013-01-27 21:32:00,33.0,33.0,30.44,South,182,0.0,0.0,100,-99.99,,,-99.99,,2013-01-28 02:32:00,
2013-01-27 21:42:00,33.0,33.0,30.44,South,182,0.0,0.0,100,-99.99,,,-99.99,,2013-01-28 02:42:00,
2013-01-27 21:53:00,33.0,33.0,30.45,South,182,0.0,0.0,100,-99.99,,,-99.99,,2013-01-28 02:53:00,
2013-01-27 22:02:00,32.0,32.0,30.44,South,182,0.0,0.0,100,-99.99,,,-99.99,,2013-01-28 03:02:00,
2013-01-27 22:12:00,32.0,32.0,30.44,South,182,0.0,0.0,100,-99.99,,,-99.99,,2013-01-28 03:12:00,
2013-01-27 22:22:00,31.0,31.0,30.45,South,182,0.0,0.0,100,-99.99,,,-99.99,,2013-01-28 03:22:00,
2013-01-27 22:32:00,31.0,31.0,30.45,South,182,0.0,0.0,100,-99.99,,,-99.99,,2013-01-28 03:32:00,
2013-01-27 22:42:00,31.0,31.0,30.45,South,182,0.0,0.0,100,-99.99,,,-99.99,,2013-01-28 03:42:00,
2013-01-27 22:52:00,31.0,31.0,30.45,South,182,0.0,0.0,100,-99.99,,,-99.99,,2013-01-28 03:52:00,
2013-01-27 23:02:00,31.0,31.0,30.43,South,182,0.0,0.0,100,-99.99,,,-99.99,,2013-01-28 04:02:00,
2013-01-27 23:12:00,31.0,31.0,30.43,South,182,0.0,0.0,100,-99.99,,,-99.99,,2013-01-28 04:12:00,
2013-01-27 23:22:00,31.0,31.0,30.43,South,182,0.0,0.0,100,-99.99,,,-99.99,,2013-01-28 04:22:00,
2013-01-27 23:32:00,31.0,31.0,30.43,South,182,0.0,0.0,100,-99.99,,,-99.99,,2013-01-28 04:32:00,
2013-01-27 23:42:00,31.0,31.0,30.43,South,182,0.0,0.0,100,-99.99,,,-99.99,,2013-01-28 04:42:00,
2013-01-27 23:52:00,31.0,31.0,30.43,South,182,0.0,0.0,100,-99.99,,,-99.99,,2013-01-28 04:52:00,